Location: Aach
(48.4707°N, 8.4803°E)
Time: 13:37:43
(UTC+00:00)

Daily predictions for brighter satellites

Satellite Brightness Start Highest point End
(mag) Time Altitude Azimuth Time Altitude Azimuth Time Altitude Azimuth
Cosmos 1441 Rocket 3.1 20:09:56 10° N 20:13:31 63° ENE 20:17:07 10° SSE
Okean-O 3.3 20:09:34 10° S 20:13:53 55° W 20:18:14 10° NNW
Cosmos 2360 Rocket 3.3 20:09:43 10° NNW 20:14:52 34° NE 20:19:59 10° ESE
ATLAS 2AS CENTAUR R/B 3.5 20:09:52 10° NW 20:16:29 45° NE 20:22:52 10° ESE
CZ-4 R/B 4.4 20:16:05 10° WSW 20:17:10 11° W 20:18:16 10° WNW
Cosmos 2266 Rocket 4.4 20:12:01 10° SSE 20:18:03 49° E 20:24:10 10° NNE
Cosmos 1300 4.0 20:17:06 10° NNE 20:20:01 23° ENE 20:22:54 10° SE
USA 245 3.3 20:19:05 10° SSE 20:22:27 73° ENE 20:26:46 10° N
Cosmos 1674 3.3 20:19:52 10° SSW 20:23:15 51° WNW 20:26:39 10° N
Cosmos 2333 Rocket 3.3 20:18:00 10° NNW 20:23:18 36° NE 20:28:35 10° ESE
SL-16 R/B 2.4 20:18:30 10° NNW 20:24:11 68° ENE 20:29:50 10° SE
Cosmos 1515 Rocket 4.0 20:20:17 10° SSW 20:24:34 63° WNW 20:28:53 10° N
In-Cosmos 22 4.3 20:19:22 10° S 20:24:52 58° E 20:30:18 10° NNE
Cosmos 1908 3.0 20:22:23 10° N 20:26:00 87° W 20:29:36 10° S
Cosmos 1470 3.1 20:22:31 10° NNW 20:26:10 58° W 20:29:48 10° S
Cosmos 468 Rocket 4.2 20:22:18 10° NNW 20:27:31 70° WSW 20:32:39 10° SSE
Atlas Centaur 2 4.2 20:23:07 10° SW 20:28:52 21° S 20:34:35 10° SE
Cosmos 2082 Rocket 2.9 20:23:26 10° SW 20:29:04 60° WNW 20:34:45 10° NNE
IRS-1A Rocket 4.4 20:24:33 10° S 20:30:03 75° WSW 20:35:36 10° NNW
Ariane Rocket 3.1 20:25:20 10° SSE 20:30:22 68° ENE 20:35:27 10° N
Cosmos 2228 Rocket 4.1 20:28:19 10° SSE 20:32:19 31° E 20:36:20 10° NNE
SL-14 R/B 4.3 20:29:38 10° SSE 20:32:48 28° E 20:36:05 10° NNE
IRS-1C Rocket 4.5 20:29:08 10° S 20:34:20 65° WSW 20:39:36 10° NNW
RESURS DK-1 2.7 20:31:44 10° NNW 20:35:45 53° NE 20:39:23 12° SE
Okean O Rocket 4.0 20:33:12 10° SW 20:36:22 19° W 20:39:33 10° NW
ARGOS Delta rocket 4.3 20:33:32 10° S 20:37:54 53° W 20:42:14 10° NNW
Tiangong 0.0 20:36:26 10° SW 20:38:14 14° SSW 20:39:45 11° SSE
Cosmos 1869 Rocket 3.6 20:36:24 10° N 20:40:53 86° W 20:45:20 10° S
Cosmos 1346 Rocket 3.6 20:39:50 10° N 20:43:28 37° ENE 20:46:26 14° SE
Terra 1.9 20:39:56 10° S 20:44:38 77° WSW 20:49:22 10° NNW
SPOT 3 Rocket 3.6 20:40:43 10° SSE 20:45:49 83° ENE 20:51:02 10° NNW
USA 281 4.2 20:42:37 10° ESE 20:48:32 37° NE 20:54:29 10° NNW
Timation 1 Rocket 4.5 20:44:12 10° S 20:49:58 55° ESE 20:55:47 10° NE
EXPRESS MD2 1.9 20:50:26 10° WSW 20:53:11 75° SSE 20:55:22 10° ENE
Meteor 1-22 Rocket 4.3 20:49:11 10° NNW 20:54:48 82° W 21:00:32 10° S
Cosmos 2315 Rocket 4.1 20:50:04 10° N 20:56:28 74° ENE 21:02:15 13° SSE
Cosmos 1758 3.3 20:54:11 10° N 20:58:06 69° E 21:01:09 16° SSE
Cosmos 1741 Rocket 4.2 20:55:32 10° S 21:00:37 52° ESE 21:05:45 10° NNE
Landsat 4 4.0 21:00:47 13° S 21:03:47 55° W 21:07:10 10° NNW
Cosmos 968 Rocket 4.0 20:59:28 12° S 21:03:48 40° ESE 21:08:37 10° NE
Cosmos 1980 Rocket 4.5 21:03:10 10° WNW 21:06:31 16° W 21:09:52 10° SW
Cosmos 2322 Rocket 2.2 21:02:21 10° NNW 21:08:04 90° SW 21:12:36 17° SSE
Cosmos 1356 Rocket 3.5 21:06:07 13° S 21:09:44 64° E 21:13:55 10° NNE
SeaSat 1 3.7 21:07:53 10° S 21:12:17 33° WSW 21:16:44 10° NW
Cosmos 1862 Rocket 3.7 21:11:25 16° S 21:14:49 59° E 21:19:12 10° NNE
Meteor 1-21 4.3 21:13:02 12° S 21:18:22 69° E 21:24:10 10° NNE
MOS 1 Rocket 4.3 21:14:18 10° S 21:19:31 51° W 21:24:43 10° NNW
Okean 2 4.3 21:19:14 20° SE 21:21:12 31° E 21:24:47 10° NNE
USA 234 3.4 21:16:07 10° NE 21:22:40 78° NNW 21:29:12 10° WSW
BREEZE-M DEB (TANK) 4.4 20:59:58 10° WSW 21:22:44 88° SSE 21:27:42 10° ENE
Cosmos 1400 Rocket 3.8 21:22:54 10° SSW 21:26:38 44° WNW 21:30:21 10° N
Cosmos 1455 3.1 21:24:46 10° N 21:27:57 32° ENE 21:29:35 21° ESE
SL-4 R/B 2.7 21:24:47 10° WNW 21:28:37 53° N 21:32:42 10° ENE
COSMOS 2428 4.0 21:23:42 10° NNW 21:28:50 33° NE 21:33:46 11° ESE
Meteor 2-10 Rocket 4.2 21:26:13 10° NNW 21:31:40 53° W 21:36:16 13° SSW
Meteor 2-20 4.5 21:26:29 10° N 21:32:42 86° W 21:37:26 18° S
Landsat 5 3.5 21:30:28 10° N 21:34:26 75° WNW 21:38:06 13° SSW
Cosmos 2219 Rocket 2.4 21:29:46 10° NNW 21:35:26 65° ENE 21:39:27 20° SE
Cosmos 1707 Rocket 3.8 21:31:38 13° SSW 21:35:38 72° WNW 21:40:05 10° N
ATLAS CENTAUR R/B 0.8 21:35:21 10° SSW 21:38:50 79° SE 21:42:26 10° NE
Cosmos 1315 Rocket 3.1 21:39:54 26° SSE 21:41:53 51° E 21:45:47 10° NNE
ARIANE 5 R/B 2.9 21:39:26 23° SE 21:41:55 54° ENE 21:46:10 10° N
SJ 16-02 1.3 21:39:29 20° S 21:42:18 64° ESE 21:46:36 10° NNE
Meteor 1-4 Rocket 1.9 21:41:42 34° S 21:42:49 70° E 21:45:49 10° NNE
SL-27 R/B 2.1 21:41:50 21° SW 21:43:31 65° WNW 21:46:17 10° NNE
Okean 3 3.4 21:41:42 19° SSW 21:44:36 84° W 21:48:48 10° N
Cosmos 1953 2.3 21:41:54 10° N 21:45:43 61° ENE 21:47:31 29° SSE
Aureole 3 3.6 21:49:38 19° SSW 21:52:19 70° WNW 21:57:03 10° N
Cosmos 1300 4.3 21:51:42 10° NNW 21:54:41 25° W 21:57:03 13° SW
Cosmos 1733 Rocket 4.2 21:52:20 10° NNW 21:56:25 38° W 21:59:30 16° SSW
Nadezhda 1 Rocket 4.3 21:51:24 10° N 21:57:38 56° ENE 22:01:33 23° SSE
Cosmos 2360 Rocket 2.7 21:53:36 10° NW 21:59:03 49° WSW 22:02:32 21° S
H-2A R/B 3.1 21:59:14 25° SE 22:01:26 49° ENE 22:05:34 10° N
GP-B 3.1 21:57:53 10° N 22:02:18 67° E 22:04:27 29° SSE
Cosmos 839 Rocket 4.1 21:55:52 10° NW 22:02:50 74° WSW 22:06:44 24° SSE
ATLAS 2AS CENTAUR R/B 2.9 22:00:58 10° NW 22:07:35 55° WSW 22:11:32 24° S
Cosmos 2333 Rocket 2.9 22:02:15 10° NW 22:07:43 46° WSW 22:11:07 22° S
SL-16 R/B 4.0 22:03:32 10° NW 22:07:44 22° W 22:11:42 11° SSW
Cosmos 1908 Rocket 3.5 22:04:37 10° N 22:09:00 84° W 22:11:05 30° S
Cosmos 1782 Rocket 3.8 22:07:17 10° N 22:11:34 55° ENE 22:13:29 30° SE
RESURS DK-1 4.4 22:10:22 10° WNW 22:13:04 17° WSW 22:14:58 13° SW
BREEZE-M DEB (TANK) 3.5 22:10:38 10° W 22:13:31 79° N 22:21:31 10° E
Okean 1-7 3.3 22:13:21 22° SSW 22:16:02 65° WNW 22:20:20 10° N
Atlas Centaur 2 4.4 22:12:04 10° SW 22:16:44 16° SSW 22:16:47 16° SSW
Cosmos 1408 3.0 22:22:39 32° E 22:22:47 33° E 22:25:31 10° NNE
BlueWalker 3 3.1 22:24:28 26° ESE 22:24:28 26° ESE 22:26:49 10° ENE
Cosmos 1242 Rocket 1.7 22:23:20 66° SSW 22:23:39 85° WNW 22:26:26 10° N
BREEZE-M DEB (TANK) 3.4 22:19:33 10° WNW 22:23:40 36° N 22:25:43 10° ENE
MINOTAUR 4 R/B 3.6 22:22:37 10° N 22:25:32 72° WNW 22:26:11 48° SW
Cosmos 1570 Rocket 4.0 22:26:23 10° NNW 22:31:46 82° WSW 22:34:28 30° SSE
Cosmos 1300 Rocket 3.5 22:27:53 10° N 22:32:12 75° E 22:33:55 35° SSE
Cosmos 2237 Rocket 3.3 22:27:24 10° NNW 22:32:43 39° NE 22:37:15 14° ESE
USA 281 3.5 22:28:55 25° S 22:32:49 57° WSW 22:39:19 10° NNW
Cosmos 2322 3.7 22:27:26 10° NNW 22:33:09 82° WSW 22:36:09 29° SSE
Cosmos 1238 4.3 22:30:06 10° N 22:33:15 89° SW 22:34:07 47° S
H-2A R/B 3.7 22:31:14 10° NE 22:34:19 19° E 22:35:22 18° ESE
ALOS 2 2.8 22:32:43 32° SE 22:34:39 65° ENE 22:39:01 10° N
Cosmos 371 Rocket 4.0 22:38:28 29° SE 22:39:57 37° ESE 22:44:22 10° NE
Cosmos 2227 Rocket 4.0 22:38:36 14° ESE 22:40:18 16° E 22:43:33 10° ENE
CZ-3 Stage 3 4.4 22:13:57 10° W 22:40:25 32° SW 22:45:18 23° S
CZ-2C R/B 4.4 22:36:25 10° N 22:40:40 47° WNW 22:43:36 19° SW
CZ-4C R/B 2.6 22:42:24 29° SE 22:43:19 31° ESE 22:48:02 10° NE
BREEZE-M DEB (TANK) 3.6 22:45:04 38° SE 22:45:04 38° SE 22:48:48 10° ENE
Cosmos 1703 3.7 22:44:41 36° SE 22:45:27 42° E 22:48:58 10° NNE
Cosmos 1980 4.4 22:40:10 10° NNW 22:45:42 50° NE 22:49:45 18° SE
Cosmos 1709 Rocket 4.1 22:45:06 28° S 22:48:41 74° E 22:55:03 10° NNE
Spot 4 4.0 22:49:10 33° S 22:51:15 65° WSW 22:56:04 10° NNW
Cosmos 2322 Rocket 4.3 22:48:03 10° WNW 22:51:16 16° W 22:54:24 10° SW
Cosmos 1703 Rocket 4.5 22:48:43 21° SW 22:51:20 44° WNW 22:55:37 10° N
NOSS 0 Rocket 3.9 22:48:44 10° NNW 22:55:01 86° ENE 22:58:44 26° SSE
Cosmos 158 Rocket 4.0 22:50:33 10° NNW 22:55:52 73° WSW 22:58:13 33° S
Cosmos 2242 Rocket 3.6 22:57:30 36° S 22:59:20 88° E 23:03:57 10° N
Cosmos 2297 Rocket 2.8 22:57:54 29° SSE 23:00:02 41° ESE 23:05:18 10° NE
EXPRESS MD2 3.8 22:58:28 10° WNW 22:59:34 25° WNW 22:59:34 25° WNW
Meteor 2-5 Rocket 4.0 22:57:47 30° SSE 23:00:42 61° E 23:06:28 10° NNE
Cosmos 1455 4.1 22:59:43 10° NW 23:02:09 18° W 23:03:18 15° WSW
Cosmos 2208 Rocket 4.2 22:58:38 10° NNW 23:03:46 59° WSW 23:05:55 33° S
GEOS 3 Rocket 4.3 23:00:11 10° NE 23:04:52 35° ESE 23:06:13 30° SSE
USA 234 4.4 22:59:07 10° ENE 23:05:17 45° N 23:11:26 10° W
Cosmos 1892 3.9 23:06:43 23° ESE 23:07:18 24° E 23:10:12 10° NE
SL-4 R/B 2.0 23:03:36 10° WNW 23:07:40 81° NNE 23:11:59 10° ESE
Cosmos 773 Rocket 4.0 23:02:48 10° NNW 23:07:59 81° ENE 23:10:31 31° SSE
COSMOS 2428 3.1 23:07:48 10° NW 23:13:18 51° WSW 23:15:45 31° SSW
CENTAUR R/B 3.7 23:12:45 19° SE 23:14:32 22° ESE 23:19:22 10° ENE
Cosmos 2098 Rocket 4.1 23:08:13 10° N 23:14:52 85° E 23:18:28 29° SSE
COSMOS 2455 2.8 23:12:16 28° SSW 23:15:33 73° ESE 23:21:35 10° NE
NOSS 8 (H) 4.3 23:15:28 55° S 23:16:02 70° SE 23:19:07 10° NE
ATLAS CENTAUR R/B 3.9 23:14:33 10° WNW 23:16:57 17° NNW 23:19:26 10° N
Cosmos 1503 Rocket 4.2 23:15:43 33° S 23:17:59 62° ESE 23:23:13 10° NNE
Cosmos 2219 Rocket 3.7 23:14:32 10° NW 23:18:53 23° WSW 23:21:08 18° SW
Cosmos 1777 Rocket 4.3 23:18:39 33° SSE 23:20:46 54° ESE 23:25:55 10° NNE
SJ 16-02 3.8 23:18:09 10° W 23:21:05 18° NW 23:24:03 10° N
PSLV R/B 3.5 23:27:19 10° N 23:31:35 78° WNW 23:33:06 38° SSW
Cosmos 332 Rocket 4.4 23:31:18 31° SSE 23:33:00 43° ESE 23:37:37 10° NE
Cosmos 304 Rocket 3.7 23:31:07 35° SSW 23:33:09 89° W 23:37:57 10° NNE
Cosmos 2263 Rocket 4.1 23:33:49 13° SE 23:36:11 17° E 23:39:36 10° ENE
H-2A R/B 4.4 23:35:13 17° WSW 23:36:37 19° W 23:39:43 10° NW
Cosmos 1174 4.3 23:32:26 10° NW 23:37:35 72° NE 23:39:54 26° SE
Okean 1 Rocket 3.4 23:36:55 10° N 23:41:13 59° ENE 23:43:05 31° SE
Cosmos 1486 Rocket 4.5 23:41:55 23° SW 23:45:02 54° WNW 23:50:10 10° NNE
Cosmos 2181 Rocket 4.0 23:40:10 10° NNW 23:46:22 71° W 23:49:33 30° S
Cosmos 1825 1.9 23:47:12 53° SSE 23:47:49 69° E 23:51:15 10° NNE
Helios 1A Rocket 4.4 23:46:37 15° ESE 23:48:59 28° ENE 23:52:16 10° N
